Home   Weather   Pahrump   Past weeks
Flag for USA

Past Weather in Pahrump, Nevada, USA — Yesterday and Last 2 Weeks

Now
58 °F

Clear.


Feels Like: 58 °F
Forecast: 69 / 47 °F
Wind: No wind

Location: Indian Springs Gunnery Range

Current Time: May 20, 2019 at 11:46:47 pm

Latest Report: May 20, 2019 at 10:58 pm


Visibility: 10 mi

Pressure: 29.66 "Hg (27.00 "Hg at 791m altitude)

Humidity: 31%

Dew Point: 28 °F

Location of PahrumpLocation

Past Weather in Pahrump — Graph

°F

Pahrump Temperature Yesterday

Maximum temperature yesterday: 69 °F (at 2:58 pm)
Minimum temperature yesterday: 53 °F (at 11:58 pm)
Average temperature yesterday: 63 °F

High & Low Weather Summary for the Past Weeks

 TemperatureHumidityPressure
High87 °F (May 14, 2:58 pm)92% (May 11, 5:58 am)29.91 "Hg (May 11, 5:58 am)
Low45 °F (May 20, 5:19 am)8% (May 14, 5:58 pm)29.45 "Hg (May 19, 4:58 pm)
Average65 °F36%29.71 "Hg
* Reported May 5 9:58 pm — May 20 9:58 pm, Pahrump. Weather by CustomWeather, © 2019

Note: Actual official high and low records may vary slightly from our data, if they occured in-between our weather recording intervals... More about our weather records

Advertising

Pahrump Weather History for the Previous 24 Hours

Scroll right to see more
 ConditionsComfort  
Time TempWeatherWind HumidityBarometerVisibility
9:58 pm
Mon, May 20
60 °FClear.3 mph26%29.66 "Hg10 mi
8:58 pm64 °FClear.9 mph21%29.63 "Hg10 mi
7:58 pm65 °FPassing clouds.9 mph20%29.62 "Hg10 mi
6:58 pm68 °FSunny.15 mph18%29.61 "Hg10 mi
5:58 pm68 °FScattered clouds.14 mph20%29.62 "Hg10 mi
4:59 pm68 °FPassing clouds.10 mph20%29.62 "Hg10 mi
3:58 pm67 °FScattered clouds.6 mph24%29.63 "Hg10 mi
3:43 pm68 °FScattered clouds.No wind23%29.64 "Hg10 mi
2:58 pm64 °FScattered clouds.No wind27%29.66 "Hg10 mi
1:56 pm62 °FPassing clouds.No wind31%29.68 "Hg10 mi
1:31 pm61 °FBroken clouds.9 mph34%29.68 "Hg10 mi
12:56 pm60 °FPartly sunny.No wind33%29.70 "Hg10 mi
12:31 pm59 °FCloudy.8 mph36%29.70 "Hg10 mi
12:06 pm57 °FPartly sunny.No wind39%29.70 "Hg10 mi
11:56 am58 °FBroken clouds.3 mph39%29.70 "Hg10 mi
11:13 am55 °FBroken clouds.5 mph44%29.69 "Hg10 mi
10:37 am54 °FBroken clouds.7 mph51%29.68 "Hg10 mi
10:12 am52 °FLight rain. Broken clouds.10 mph54%29.68 "Hg10 mi
10:07 am52 °FLight rain. Partly sunny.9 mph54%29.68 "Hg10 mi
9:13 am50 °FLight rain. Broken clouds.18 mph62%29.67 "Hg10 mi
8:58 am51 °FLight rain. Scattered clouds.22 mph53%29.67 "Hg10 mi
8:29 am52 °FBroken clouds.20 mph50%29.66 "Hg10 mi
7:28 am50 °FScattered clouds.20 mph54%29.64 "Hg10 mi
6:58 am49 °FMostly cloudy.22 mph52%29.64 "Hg10 mi
5:58 am46 °FPartly sunny.20 mph63%29.61 "Hg10 mi
5:19 am45 °FPassing clouds.23 mph71%29.62 "Hg10 mi
5:01 am46 °FLight rain. Overcast.30 mph62%29.60 "Hg10 mi
4:58 am47 °FOvercast.26 mph58%29.60 "Hg10 mi
3:58 am51 °FOvercast.14 mph45%29.57 "Hg10 mi
3:43 am50 °FPassing clouds.14 mph47%29.57 "Hg10 mi
2:58 am49 °FPassing clouds.5 mph49%29.57 "Hg10 mi
1:58 am51 °FPassing clouds.13 mph49%29.59 "Hg10 mi
12:58 am52 °FMostly cloudy.8 mph43%29.59 "Hg10 mi
11:58 pm
Sun, May 19
53 °FOvercast.16 mph39%29.58 "Hg10 mi
Weather by CustomWeather, © 2019

See weather overview